Location: Lewisville
(33.0462°N, 96.9942°W)
Time: 07:25:04
(UTC-05:00)

Envisat - Pass Details

Date: 06 January 2020
Orbit: 764 x 766 km, 98.1° (Epoch: 06 July)

Event Time Altitude Azimuth Distance (km) Brightness Sun altitude
Rises 18:11:03 0° 158° (SSE) 3,215 6.2 -7.6°
Reaches altitude 10° 18:13:21 10° 155° (SSE) 2,293 5.4 -8.0°
Maximum altitude 18:18:21 63° 75° (ENE) 852 3.0 -9.0°
Drops below altitude 10° 18:23:22 10° 355° (N) 2,308 5.3 -10.0°
Sets 18:25:41 0° 352° (N) 3,238 6.1 -10.4°
